Regional Weather Roundup
Issued by NWS Nashville, TN

Home | Current Version | Previous Version | Text Only | Print | Product List | Glossary On
Versions: 1 2 3 4 5 6 7 8 9 10 11 12 13 14 15 16 17 18 19 20 21 22 23 24 25 26 27 28 29 30 31 32 33 34 35 36 37 38 39 40 41 42 43 44 45 46 47 48 49 50
000
ASUS44 KOHX 260610
RWROHX
MIDDLE TENNESSEE HOURLY WEATHER ROUNDUP
NATIONAL WEATHER SERVICE NASHVILLE TN
100 AM CDT THU APR 26 2018

NOTE: "FAIR" INDICATES FEW OR NO CLOUDS BELOW 12,000 FEET WITH
NO SIGNIFICANT WEATHER AND/OR OBSTRUCTIONS TO VISIBILITY.

* THESE REPORTS ARE NOT UNDER NWS QUALITY CONTROL AND MAY NOT
  REPORT WEATHER SUCH AS PRECIPITATION AND FOG.


TNZ005>011-023>034-057-059-062>066-078-080-260700
...NORTHERN MIDDLE TENNESSEE...

CITY           SKY/WX    TMP DP  RH WIND       PRES   REMARKS
CLARKSVILLE    CLOUDY    58  49  72 NW5       29.91F
CROSSVILLE     CLOUDY    51  48  89 CALM      29.93F
GALLATIN       CLOUDY    57  54  88 CALM      29.93S
LEBANON        CLOUDY    59  54  82 CALM      29.88F
LIVINGSTON     CLEAR     52  48  87 CALM      29.91F
NASHVILLE      CLOUDY    61  51  70 W8        29.91F
PORTLAND       MOCLDY    55  54  94 CALM      29.90F
SMYRNA         CLOUDY    58  54  86 CALM      29.91F
SPARTA         PTCLDY    52  52 100 CALM      29.91F
SPRINGFIELD    CLOUDY    57  54  88 CALM      29.90F
WEST NASHVILLE CLOUDY    59  52  77 CALM      29.90S
$$
TNZ056-058-060-061-075>077-079-093>097-260700
...SOUTHERN MIDDLE TENNESSEE...

CITY           SKY/WX    TMP DP  RH WIND       PRES   REMARKS
COLUMBIA       CLOUDY    57  57 100 CALM      29.89F
FAYETTEVILLE   CLOUDY    59  54  82 CALM      29.89F
LEWISBURG      CLOUDY    57  52  82 CALM      29.90F
MCMINNVILLE    CLOUDY    55  52  88 CALM      29.90F
MURFREESBORO   CLOUDY    61  52  72 CALM      29.89F
PULASKI        CLOUDY    59  55  88 N5        29.89F
SHELBYVILLE    CLOUDY    57  54  88 CALM      29.90F
TULLAHOMA      CLOUDY    57  54  88 CALM      29.89F
WINCHESTER     CLOUDY    57  54  88 CALM      29.90F
$$


...KEY TO REMARKS...
VSB - VISIBILITY IN MILES
WCI - WIND CHILL INDEX
HX  - HEAT INDEX




USA.gov is the U.S. government's official web portal to all federal, state and local government web resources and services.